Juneau, AK

4:48 PM AKST on January 19, 2017 (GMT -0900)
Juneau International

Weather History for PAJN - October, 2012

Change the Weather History Date:

Wednesday, October 24, 2012

  Actual Average Record
Temperature  
Mean Temperature 34 °F 40 °F  
Max Temperature 39 °F 44 °F 55 °F (1979)
Min Temperature 29 °F 35 °F 19 °F (1951)
Degree Days  
Heating Degree Days 31 25  
Month to date heating degree days 560 513  
Since 1 July heating degree days 1638 1497  
Cooling Degree Days 0 0  
Month to date cooling degree days 0 0  
Year to date cooling degree days 1 2  
Moisture  
Dew Point 13 °F    
Average Humidity 41    
Maximum Humidity 49    
Minimum Humidity 32    
Precipitation  
Precipitation 0.00 in 0.26 in 1.40 in (1974)
Month to date precipitation 3.49 6.94  
Year to date precipitation 53.92 48.75  
Snow  
Snow 0.00 in 0.10 in 1.80 in (2008)
Month to date snowfall T 0.2  
Since 1 July snowfall T 0.2  
Since 1 September snowfall T 0.2  
Snow Depth 0.00 in    
Sea Level Pressure  
Sea Level Pressure 30.28 in    
Wind  
Wind Speed 9 mph (East)    
Max Wind Speed 26 mph    
Max Gust Speed 31 mph    
Visibility 10 miles    
Events      
T = Trace of Precipitation, MM = Missing Value Source: NWS Daily Summary

Daily Weather History Graph

Daily Weather History Graph

Search for Another Location

Airport or City:

Trip Planner

Search our weather history database for the weather conditions in past years. The results will help you decide how hot, cold, wet, or windy it might be!

Date:

Astronomy

Oct. 24, 2012 Rise Set
Actual Time 7:56 AM AKDT 5:27 PM AKDT
Civil Twilight 7:15 AM AKDT 6:08 PM AKDT
Nautical Twilight 6:28 AM AKDT 6:54 PM AKDT
Astronomical Twilight 5:42 AM AKDT 7:40 PM AKDT
Moon 3:38 PM AKDT (10/24) 1:59 AM AKDT (10/24)
Length of Visible Light 10h 53m
Length of Day
9h 30m
Waxing Gibbous, 77% of the Moon is Illuminated
Oct 24
Waxing Gibbous
Oct 29
Full
Nov 6
Last Quarter
Nov 13
New
Nov 20
First Quarter

Hourly Weather History & Observations

Time (AKDT) Temp. Windchill Dew Point Humidity Pressure Visibility Wind Dir Wind Speed Gust Speed Precip Events Conditions
12:53 AM 34.0 °F - 16.0 °F 48% 30.17 in 10.0 mi Calm Calm - N/A   Clear
1:53 AM 32.0 °F 28.7 °F 16.0 °F 52% 30.18 in 10.0 mi ENE 3.5 mph - N/A   Partly Cloudy
2:53 AM 34.0 °F 26.6 °F 14.0 °F 44% 30.18 in 10.0 mi ESE 9.2 mph - N/A   Partly Cloudy
3:53 AM 32.0 °F 27.5 °F 14.0 °F 48% 30.19 in 10.0 mi East 4.6 mph - N/A   Clear
4:53 AM 33.1 °F 28.7 °F 12.9 °F 43% 30.20 in 10.0 mi ESE 4.6 mph - N/A   Clear
5:53 AM 32.0 °F 27.5 °F 14.0 °F 48% 30.22 in 10.0 mi East 4.6 mph - N/A   Clear
6:53 AM 32.0 °F 24.8 °F 12.9 °F 45% 30.22 in 10.0 mi ESE 8.1 mph - N/A   Partly Cloudy
7:53 AM 32.0 °F 25.6 °F 12.9 °F 45% 30.24 in 10.0 mi ESE 6.9 mph - N/A   Mostly Cloudy
8:53 AM 34.0 °F 29.8 °F 12.0 °F 40% 30.25 in 10.0 mi ENE 4.6 mph - N/A   Mostly Cloudy
9:53 AM 36.0 °F 25.6 °F 10.9 °F 36% 30.26 in 10.0 mi East 18.4 mph 25.3 mph N/A   Mostly Cloudy
10:53 AM 37.0 °F 27.7 °F 10.9 °F 34% 30.27 in 10.0 mi ESE 16.1 mph 28.8 mph N/A   Mostly Cloudy
11:53 AM 37.0 °F 27.4 °F 12.0 °F 36% 30.27 in 10.0 mi East 17.3 mph - N/A   Mostly Cloudy
12:53 PM 37.9 °F 27.3 °F 12.0 °F 35% 30.28 in 10.0 mi East 21.9 mph 28.8 mph N/A   Mostly Cloudy
1:53 PM 37.9 °F 28.2 °F 12.0 °F 35% 30.28 in 10.0 mi East 18.4 mph 26.5 mph N/A   Mostly Cloudy
2:53 PM 37.9 °F 27.9 °F 12.0 °F 35% 30.29 in 10.0 mi East 19.6 mph 27.6 mph N/A   Scattered Clouds
3:53 PM 37.9 °F 29.2 °F 12.0 °F 35% 30.30 in 10.0 mi East 15.0 mph 25.3 mph N/A   Mostly Cloudy
4:53 PM 37.0 °F 28.5 °F 10.9 °F 34% 30.32 in 10.0 mi East 13.8 mph - N/A   Scattered Clouds
5:53 PM 35.1 °F 31.0 °F 12.9 °F 40% 30.34 in 10.0 mi ENE 4.6 mph - N/A   Scattered Clouds
6:53 PM 34.0 °F 28.0 °F 12.9 °F 42% 30.35 in 10.0 mi ENE 6.9 mph - N/A   Scattered Clouds
7:53 PM 34.0 °F 31.0 °F 12.9 °F 42% 30.37 in 10.0 mi Variable 3.5 mph - N/A   Scattered Clouds
8:53 PM 33.1 °F - 12.0 °F 42% 30.38 in 10.0 mi Calm Calm - N/A   Partly Cloudy
9:53 PM 32.0 °F - 14.0 °F 48% 30.39 in 10.0 mi Calm Calm - N/A   Clear
10:53 PM 32.0 °F - 12.2 °F 44% 30.40 in 10.0 mi Calm Calm - N/A   Clear
11:53 PM 30.9 °F - 12.9 °F 47% 30.41 in 10.0 mi Calm Calm - N/A   Clear